[[{"header":{"parameterUnit":"m.s-1","parameterCategory":1,"la1":30.2991,"la2":30.254,"lo1":-89.0895,"lo2":-89.0444,"dy":0.0017,"dx":0.0017,"nx":28,"ny":28,"refTime":"2023-09-12T03:00:00:Z","depth":0,"parameterNumber":2,"parameterNumberName":"U-component_of_WINDS"},"data":[0,0,0,0,0,0,0,0,0,0,0,0,0,0,0,0,0,0,0,0,0,0,0,0,0,0,0,0,0,0,0,0,0,0,0,0,0,0,0,0,0,0,0,0,0,0,0,0,0,0,0,0,0,0,0,0,0,0,1.3972,1.3971,0,1.3845,1.3844,1.3842,1.3719,1.3718,1.3716,1.3715,1.3576,1.3574,1.3571,0,0,0,0,0,0,0,0,0,0,0,0,0,1.4101,1.41,1.3972,1.3971,1.3969,1.3845,1.3844,1.3842,1.3719,1.3718,1.3716,1.3714,1.3577,1.3574,1.3571,0,0,0,0,0,0,0,0,0,0,0,0,0,1.4017,1.4099,1.3972,1.3893,1.3885,1.3846,1.3844,1.3841,1.372,1.3717,1.3715,1.3713,1.3577,1.3574,1.3571,1.3597,0,0,1.3561,1.3559,0,0,0,0,0,0,0,0,1.4022,1.4012,1.3906,1.3899,1.3889,1.3796,1.3838,1.3759,1.372,1.3782,1.3715,1.3712,1.365,1.3641,1.3622,1.3591,1.3585,1.356,1.3558,1.3557,1.3556,0,0,0,0,0,0,0,1.4028,1.4017,1.3921,1.3905,1.3894,1.3862,1.3847,1.3823,1.3731,1.3777,1.3767,1.3755,1.3645,1.3625,1.3618,1.3583,1.356,1.3557,1.3555,1.3554,1.3565,1.3567,0,0,0,0,0,0,1.4047,1.4023,1.3926,1.3918,1.3951,1.3861,1.3845,1.3828,1.3731,1.3714,1.3757,1.3749,1.3632,1.3622,1.3612,1.3635,1.3557,1.3554,1.3552,1.3563,1.3565,1.3568,0,0,0,0,0,0,1.405,1.4039,1.3931,1.3968,1.3951,1.3862,1.3843,1.3827,1.3807,1.3716,1.3698,1.3754,1.363,1.3617,1.3602,1.3629,1.3552,1.3549,1.356,1.3564,1.3567,1.3683,0,0,0,0,0,0,1.4054,1.4041,1.4052,1.3969,1.395,1.3925,1.3845,1.3826,1.3803,1.3792,1.3708,1.3692,1.3627,1.3608,1.3599,1.3623,1.3547,1.3557,1.3562,1.3566,1.3677,1.369,1.3702,0,0,0,0,0,1.4059,1.4088,1.4053,1.4042,1.3962,1.3927,1.3916,1.3843,1.3805,1.3814,1.3755,1.3695,1.3628,1.3607,1.3596,1.362,1.3555,1.356,1.3565,1.3671,1.3688,1.3702,0,0,0,0,0,0,1.4173,1.4076,1.4036,1.4039,1.3993,1.3907,1.3915,1.3863,1.3824,1.3815,1.3724,1.3706,1.3701,1.3659,1.3637,1.3639,1.3583,1.3586,1.3667,1.3682,1.3695,1.3704,1.3544,0,0,0,0,0,1.42,1.4182,1.4097,1.4108,1.4087,1.4006,1.3988,1.3936,1.3883,1.3862,1.3802,1.3751,1.3718,1.3698,1.3663,1.3671,1.3649,1.3681,1.3694,1.3705,1.3708,1.3708,1.372,1.3585,1.3585,1.3585,0,0,1.4252,1.4197,1.419,1.4129,1.4087,1.4069,1.399,1.3973,1.3958,1.3858,1.3841,1.3796,1.3732,1.3729,1.3724,1.3693,1.3741,1.3712,1.3721,1.3718,1.3714,1.3727,1.3739,1.3588,1.3588,1.3587,0,0,1.4338,1.4296,1.43,1.426,1.4199,1.4145,1.4146,1.4068,1.4035,1.4017,1.3942,1.3921,1.3867,1.3825,1.3796,1.3869,1.381,1.386,1.3925,1.3926,1.3936,1.3945,1.3969,1.3979,1.3863,1.3864,1.3864,0,1.441,1.4382,1.4308,1.4297,1.4271,1.4184,1.4186,1.415,1.408,1.4063,1.403,1.3961,1.3912,1.3897,1.3915,1.3895,1.3892,1.3867,1.3942,1.395,1.3957,1.3979,1.3988,1.387,1.3869,1.3868,1.3868,0,1.4473,1.4454,1.4465,1.4402,1.4378,1.4374,1.4297,1.4281,1.4232,1.4181,1.4163,1.4102,1.4052,1.4045,1.3996,1.4023,1.4006,1.3959,1.39,1.3977,1.3996,1.4004,1.3879,1.3876,1.3875,1.3873,0,0,1.4624,1.4523,1.4527,1.4498,1.4425,1.4408,1.4399,1.4354,1.4341,1.4296,1.4285,1.4242,1.4199,1.4166,1.4111,1.4113,1.4172,1.4065,1.4062,1.4085,1.4196,1.4231,1.4242,1.4135,1.4136,1.4137,1.4201,0,1.4696,1.4678,1.4612,1.4612,1.4593,1.4511,1.4503,1.4456,1.4409,1.4384,1.433,1.4301,1.4246,1.4226,1.4224,1.4166,1.4193,1.416,1.412,1.4119,1.4137,1.4252,1.4288,1.4352,1.4208,1.4209,1.421,0,1.4777,1.474,1.474,1.4668,1.4657,1.4652,1.4605,1.4584,1.4528,1.4493,1.4459,1.4399,1.4383,1.4331,1.4305,1.4285,1.4264,1.4233,1.4234,1.4225,1.4168,1.4245,1.437,1.438,1.4221,1.4221,1.422,0,1.4885,1.4836,1.4829,1.4806,1.4723,1.4721,1.4685,1.4628,1.4605,1.4564,1.4548,1.4505,1.448,1.4447,1.4375,1.4344,1.4358,1.4299,1.4326,1.4328,1.433,1.433,1.4453,1.4321,1.4321,1.4321,1.4321,0,1.4971,1.4973,1.4877,1.4872,1.4872,1.4796,1.4797,1.4753,1.4704,1.4687,1.4613,1.4599,1.4507,1.4482,1.4426,1.4413,1.4402,1.4372,1.4356,1.4377,1.4381,1.4361,1.4354,1.4323,1.4323,1.4322,1.4322,0,1.5091,1.5027,1.5014,1.4937,1.4918,1.4921,1.4854,1.4845,1.4795,1.4775,1.4766,1.4685,1.4652,1.4579,1.4524,1.4486,1.4486,1.446,1.4506,1.4496,1.4526,1.4523,1.4637,1.4647,1.4513,1.4514,1.4515,0,1.5149,1.5149,1.5074,1.5059,1.5028,1.5005,1.4982,1.4907,1.4886,1.4824,1.4823,1.4785,1.4749,1.4699,1.4633,1.4591,1.4562,1.4605,1.4555,1.4576,1.456,1.4561,1.4559,1.4615,1.4617,1.4619,1.462,0,1.5257,1.5226,1.5198,1.516,1.5136,1.5101,1.5061,1.5053,1.4968,1.4948,1.4915,1.4888,1.4835,1.4796,1.4745,1.4705,1.4647,1.4637,1.4641,1.4661,1.4687,1.4671,1.4534,1.4634,1.4633,1.4632,1.4631,1.463,1.5346,1.5343,1.529,1.5261,1.5224,1.519,1.5179,1.5128,1.51,1.5053,1.501,1.498,1.4924,1.485,1.4814,1.4788,1.4759,1.4765,1.4766,1.4768,1.4776,1.4694,1.4778,1.4778,1.4777,1.4777,1.4776,0,1.5449,1.5412,1.5387,1.5336,1.5313,1.5266,1.522,1.5203,1.518,1.5134,1.5103,1.5064,1.5027,1.496,1.4917,1.4909,1.4881,1.4899,1.4898,1.4889,1.4805,1.4805,1.4922,1.4922,1.4922,1.4922,1.4922,1.4922,1.55,1.5492,1.5455,1.5427,1.5389,1.5362,1.534,1.5307,1.527,1.5232,1.5202,1.5161,1.5105,1.5058,1.5021,1.5002,1.4988,1.5015,1.4988,1.4909,1.4895,1.4882,1.4882,1.5013,1.5013,1.5074,1.5074,1.5075]},{"header":{"parameterUnit":"m.s-1","parameterCategory":1,"la1":30.2991,"la2":30.254,"lo1":-89.0895,"lo2":-89.0444,"dy":0.0017,"dx":0.0017,"nx":28,"ny":28,"refTime":"2023-09-12T03:00:00:Z","depth":0,"parameterNumber":3,"parameterNumberName":"V-component_of_WINDS"},"data":[0,0,0,0,0,0,0,0,0,0,0,0,0,0,0,0,0,0,0,0,0,0,0,0,0,0,0,0,0,0,0,0,0,0,0,0,0,0,0,0,0,0,0,0,0,0,0,0,0,0,0,0,0,0,0,0,0,0,0.5397,0.5399,0,0.5562,0.5564,0.5566,0.5579,0.5577,0.5575,0.5574,0.5742,0.5748,0.5754,0,0,0,0,0,0,0,0,0,0,0,0,0,0.509,0.5095,0.5397,0.5399,0.5401,0.5562,0.5564,0.5566,0.5579,0.5577,0.5575,0.5573,0.574,0.5747,0.5754,0,0,0,0,0,0,0,0,0,0,0,0,0,0.5236,0.5097,0.5397,0.5427,0.5431,0.5561,0.5564,0.5567,0.558,0.5577,0.5574,0.5572,0.5737,0.5746,0.5755,0.5866,0,0,0.5784,0.5788,0,0,0,0,0,0,0,0,0.5228,0.5247,0.542,0.5425,0.543,0.5547,0.5518,0.5667,0.558,0.5523,0.5574,0.5571,0.5679,0.5693,0.573,0.5874,0.5881,0.5784,0.579,0.5794,0.5797,0,0,0,0,0,0,0,0.5217,0.524,0.5462,0.5423,0.5429,0.5431,0.5449,0.5546,0.5614,0.5528,0.553,0.5549,0.5681,0.5721,0.5734,0.5884,0.5784,0.5792,0.5798,0.5802,0.6125,0.6128,0,0,0,0,0,0,0.5202,0.5232,0.5457,0.5467,0.532,0.5439,0.5459,0.5512,0.5613,0.5626,0.5551,0.5549,0.5707,0.5723,0.574,0.5876,0.5794,0.5802,0.5808,0.6122,0.6126,0.6129,0,0,0,0,0,0,0.5195,0.5222,0.545,0.535,0.5379,0.5447,0.5507,0.5517,0.5557,0.5631,0.5643,0.5579,0.5705,0.5727,0.5834,0.5882,0.5807,0.5815,0.6118,0.6123,0.6127,0.6149,0,0,0,0,0,0,0.5186,0.5219,0.5263,0.5351,0.5384,0.5543,0.551,0.5522,0.5573,0.5572,0.566,0.5672,0.5705,0.5821,0.5844,0.5893,0.5822,0.6114,0.612,0.6126,0.6145,0.6154,0.6162,0,0,0,0,0,0.5175,0.5263,0.5265,0.5293,0.5441,0.5546,0.5565,0.5601,0.5577,0.5621,0.5668,0.567,0.5872,0.5831,0.5857,0.5911,0.6112,0.6119,0.6125,0.6141,0.6152,0.6162,0,0,0,0,0,0,0.518,0.5275,0.5279,0.5398,0.5464,0.5548,0.5605,0.5612,0.5686,0.5682,0.5722,0.5742,0.5848,0.589,0.5843,0.6022,0.5989,0.6002,0.5992,0.6003,0.6012,0.6001,0.583,0,0,0,0,0,0.5194,0.5273,0.5351,0.5448,0.5481,0.5537,0.5584,0.5606,0.5676,0.5704,0.5759,0.5826,0.5904,0.5956,0.6032,0.6149,0.6168,0.6198,0.6207,0.6214,0.6225,0.6289,0.6303,0.6152,0.6152,0.6151,0,0,0.5226,0.5287,0.5335,0.5451,0.5504,0.5584,0.5561,0.5646,0.5705,0.5717,0.5822,0.5864,0.5941,0.6054,0.6106,0.6092,0.627,0.6223,0.6227,0.6235,0.6297,0.6311,0.6324,0.6156,0.6155,0.6155,0,0,0.5324,0.5379,0.5465,0.5519,0.56,0.5636,0.5657,0.574,0.5768,0.5874,0.5884,0.5953,0.6089,0.6143,0.6189,0.6303,0.6308,0.6327,0.6373,0.6435,0.6447,0.6458,0.6499,0.6513,0.6337,0.6337,0.6337,0,0.5353,0.5474,0.5509,0.5594,0.5644,0.5657,0.5744,0.5794,0.5896,0.593,0.5912,0.608,0.6133,0.6258,0.6286,0.6322,0.6346,0.6318,0.6442,0.6453,0.6464,0.6504,0.6519,0.6339,0.6339,0.6338,0.6338,0,0.5506,0.5589,0.5648,0.5747,0.5803,0.5889,0.5935,0.5988,0.6003,0.604,0.6147,0.621,0.6299,0.633,0.6346,0.6457,0.6445,0.6434,0.6402,0.648,0.6518,0.6533,0.6341,0.6341,0.634,0.634,0,0,0.5615,0.5729,0.575,0.5794,0.5883,0.5948,0.6032,0.6119,0.6164,0.6232,0.6304,0.6416,0.6406,0.6457,0.6479,0.6533,0.6619,0.6515,0.6517,0.6533,0.6744,0.6754,0.6771,0.6621,0.6624,0.6627,0.6738,0,0.5724,0.5877,0.5909,0.6041,0.6117,0.6129,0.6202,0.6264,0.63,0.6369,0.6409,0.6488,0.6468,0.6499,0.6553,0.6597,0.6662,0.6589,0.6688,0.6692,0.6671,0.6791,0.6801,0.6904,0.6753,0.6756,0.6758,0,0.5873,0.5945,0.6084,0.6161,0.6194,0.626,0.6342,0.6408,0.6477,0.6499,0.6555,0.657,0.6657,0.6618,0.6738,0.6688,0.6729,0.6757,0.6762,0.6774,0.6731,0.6807,0.6937,0.6953,0.6781,0.6779,0.6778,0,0.5939,0.607,0.6171,0.6208,0.63,0.6346,0.6386,0.6453,0.6502,0.6572,0.6605,0.6683,0.6727,0.6787,0.6822,0.6791,0.6939,0.6904,0.696,0.696,0.6994,0.6991,0.7133,0.7017,0.7017,0.7017,0.7016,0,0.6059,0.6144,0.6202,0.6264,0.6358,0.6393,0.6485,0.6525,0.6583,0.6652,0.6666,0.673,0.6771,0.6841,0.6868,0.6963,0.6982,0.7002,0.7009,0.7003,0.7,0.7032,0.7027,0.7021,0.702,0.7019,0.7018,0,0.6151,0.6193,0.6303,0.638,0.6401,0.6468,0.6534,0.6593,0.6628,0.6715,0.6737,0.6792,0.6874,0.6914,0.7016,0.7034,0.7142,0.7143,0.7119,0.7122,0.7176,0.7171,0.7346,0.737,0.7236,0.7237,0.7238,0,0.6226,0.6291,0.6375,0.6422,0.6464,0.6539,0.659,0.6625,0.6676,0.6758,0.6808,0.689,0.6959,0.7088,0.7137,0.7214,0.7218,0.7274,0.723,0.7221,0.722,0.7217,0.7224,0.7283,0.7284,0.7285,0.7286,0,0.6354,0.6371,0.6443,0.6523,0.6582,0.6646,0.6709,0.6746,0.6791,0.6848,0.6932,0.6985,0.7088,0.7169,0.725,0.729,0.7295,0.7298,0.7316,0.7311,0.7295,0.7305,0.7142,0.7295,0.7294,0.7294,0.7293,0.7293,0.6441,0.6499,0.6567,0.6646,0.6697,0.6755,0.6814,0.6856,0.6927,0.7014,0.7029,0.7119,0.7183,0.7292,0.7334,0.7403,0.7391,0.7416,0.7422,0.7429,0.7432,0.7282,0.7418,0.7417,0.7417,0.7417,0.7417,0,0.6571,0.6614,0.6687,0.6774,0.6836,0.6834,0.6903,0.6955,0.7034,0.7094,0.716,0.7255,0.7334,0.7387,0.7466,0.7511,0.7515,0.7531,0.7529,0.7538,0.7438,0.7416,0.7526,0.7526,0.7526,0.7526,0.7526,0.7526,0.6646,0.6745,0.6769,0.6892,0.6934,0.7022,0.7061,0.7114,0.7162,0.7269,0.7334,0.7368,0.7425,0.7507,0.7578,0.7592,0.7621,0.7637,0.765,0.7556,0.7545,0.7534,0.7514,0.7642,0.7642,0.7744,0.7745,0.7746]}]]